全球星 M008星 (GLOBALSTAR M008)

导读 | 豆包AI

GLOBALSTAR M008隶属于美国Globalstar(全球星)低轨通信卫星星座,是全球星系统早期部署的组网卫星,于1998年4月24日发射升空。该卫星运行在倾角约52°的近地轨道,轨道周期约116分钟,近地点约1521km、远地点约1526km,目前仍保持在轨状态。 作为全球星星座的组成部分,它为全球提供语音通信、数据传输服务,填补偏远地区、海洋等区域地面通信覆盖空白,支撑应急通信、物联网等应用,是全球早期低轨通信星座建设的重要节点。

基本信息
目录编号:
25309
目录名称:
GLOBALSTAR M008
国际标识:
1998-023D
轨道中心:
EARTH
卫星名称:
全球星 M008星
卫星全名:
全球星 M008星 (GLOBALSTAR M008)
卫星状态:
在轨 (已飞行10186 天)
发射日期:
1998-04-24 UTC
国别 :
(GLOB)
星等 :
--
轨道信息
数据来源 国际轨道数据
星历时间: 2026-03-13T22:41:06+0800
10小时前
查看轨道信息
半长轴: 7901.396km
偏心率: 0.0002582
轨道倾角: 51.995°
近地点辐角 33.391°
升交点赤经 136.914°
平近点角 131.855°
近地点: 1521.218km
远地点: 1525.3km
周期: 116.497分钟
每日圈数: 12.360814
详细信息
固有亮度:
5
最大亮度:
7.9
平衡模式:
三轴稳定
覆盖范围:
全球
运营商:
全球星公司
运营商所在国:
美国
使用方式:
暂无
卫星简介
全球星星座由48颗卫星加8颗备份星组成。这些卫星分布在8个倾角为52度的圆形轨道平面上,每个轨道平面6颗卫星,另有1 颗备用星。轨道高度约为1414km,传输时延和处理时延小于300ms,整个系统的覆盖区为南北纬70度以内的地区。该卫星仍在工作。
2D轨道图
3D轨道图
轨道高度分析图
轨道倾角分析图
轨道综合分析图
查看轨道综合分析图